contact:dominique.lefevre@mio.osupytheas.fr, maurice.libes@osupytheas.fr, didier.mallarino@osupytheas.fr
Project:EMSO http://www.emso-fr.org/EMSO-France
Depth: 2436.0 m
Title:EMSO Ligure Ouest : Data MII capteur MICROCAT
DateTime_Computer,Latitude,Longitude,Temperature,Conductivity,Pressure,DateTime_Instrument
DateTime_Computer,Latitude,Longitude,degC,S m-1,dbar,DateTime_Instrument
2022-08-18T00:01:59Z,42.805,6.029,13.3006,4.60050,2470.67,2022-8-18T02:03:48Z
2022-08-18T00:05:02Z,42.805,6.029,13.3009,4.60050,2470.693,2022-8-18T02:06:51Z
2022-08-18T00:08:05Z,42.805,6.029,13.3006,4.60052,2470.624,2022-8-18T02:09:54Z
2022-08-18T00:11:08Z,42.805,6.029,13.3006,4.60053,2470.684,2022-8-18T02:12:58Z
2022-08-18T00:14:11Z,42.805,6.029,13.3011,4.60053,2470.67,2022-8-18T02:16:01Z
2022-08-18T00:17:14Z,42.805,6.029,13.3011,4.60051,2470.693,2022-8-18T02:19:04Z
2022-08-18T00:20:17Z,42.805,6.029,13.3009,4.60052,2470.646,2022-8-18T02:22:07Z
2022-08-18T00:23:20Z,42.805,6.029,13.3006,4.60052,2470.693,2022-8-18T02:25:10Z
2022-08-18T00:26:24Z,42.805,6.029,13.3009,4.60051,2470.693,2022-8-18T02:28:13Z
2022-08-18T00:29:27Z,42.805,6.029,13.3008,4.60050,2470.656,2022-8-18T02:31:16Z
2022-08-18T00:32:30Z,42.805,6.029,13.3010,4.60051,2470.646,2022-8-18T02:34:19Z
2022-08-18T00:35:33Z,42.805,6.029,13.3009,4.60051,2470.646,2022-8-18T02:37:23Z
2022-08-18T00:38:36Z,42.805,6.029,13.3001,4.60052,2470.646,2022-8-18T02:40:26Z
2022-08-18T00:41:39Z,42.805,6.029,13.3008,4.60054,2470.646,2022-8-18T02:43:29Z
2022-08-18T00:44:42Z,42.805,6.029,13.3006,4.60056,2470.646,2022-8-18T02:46:32Z
2022-08-18T00:47:45Z,42.805,6.029,13.3009,4.60053,2470.646,2022-8-18T02:49:35Z
2022-08-18T00:50:49Z,42.805,6.029,13.3006,4.60052,2470.646,2022-8-18T02:52:38Z
2022-08-18T00:53:52Z,42.805,6.029,13.3006,4.60057,2470.661,2022-8-18T02:55:41Z
2022-08-18T00:56:55Z,42.805,6.029,13.3010,4.60061,2470.646,2022-8-18T02:58:44Z
2022-08-18T00:59:58Z,42.805,6.029,13.3010,4.60058,2470.646,2022-8-18T03:01:48Z
2022-08-18T01:03:01Z,42.805,6.029,13.3010,4.60059,2470.661,2022-8-18T03:04:51Z
2022-08-18T01:06:04Z,42.805,6.029,13.3010,4.60063,2470.684,2022-8-18T03:07:54Z
2022-08-18T01:09:07Z,42.805,6.029,13.3009,4.60058,2470.661,2022-8-18T03:10:57Z
2022-08-18T01:12:10Z,42.805,6.029,13.3009,4.60057,2470.67,2022-8-18T03:14:00Z
2022-08-18T01:15:14Z,42.805,6.029,13.3007,4.60055,2470.624,2022-8-18T03:17:03Z
2022-08-18T01:18:17Z,42.805,6.029,13.3009,4.60057,2470.646,2022-8-18T03:20:06Z
2022-08-18T01:21:20Z,42.805,6.029,13.3009,4.60059,2470.646,2022-8-18T03:23:09Z
2022-08-18T01:24:23Z,42.805,6.029,13.3012,4.60054,2470.646,2022-8-18T03:26:12Z
2022-08-18T01:27:26Z,42.805,6.029,13.3006,4.60059,2470.637,2022-8-18T03:29:16Z
2022-08-18T01:30:29Z,42.805,6.029,13.3011,4.60058,2470.637,2022-8-18T03:32:19Z
2022-08-18T01:33:32Z,42.805,6.029,13.3006,4.60053,2470.624,2022-8-18T03:35:22Z
2022-08-18T01:36:35Z,42.805,6.029,13.3008,4.60056,2470.646,2022-8-18T03:38:25Z
2022-08-18T01:39:39Z,42.805,6.029,13.3009,4.60067,2470.624,2022-8-18T03:41:28Z
2022-08-18T01:42:42Z,42.805,6.029,13.3006,4.60061,2470.61,2022-8-18T03:44:31Z
2022-08-18T01:45:45Z,42.805,6.029,13.3012,4.60057,2470.624,2022-8-18T03:47:34Z
2022-08-18T01:48:48Z,42.805,6.029,13.3009,4.60059,2470.624,2022-8-18T03:50:37Z
2022-08-18T01:51:51Z,42.805,6.029,13.3010,4.60055,2470.577,2022-8-18T03:53:41Z
2022-08-18T01:54:54Z,42.805,6.029,13.3007,4.60067,2470.637,2022-8-18T03:56:44Z
2022-08-18T01:57:57Z,42.805,6.029,13.3009,4.60059,2470.577,2022-8-18T03:59:47Z
2022-08-18T02:01:00Z,42.805,6.029,13.3006,4.60062,2470.637,2022-8-18T04:02:50Z
2022-08-18T02:04:04Z,42.805,6.029,13.3009,4.60066,2470.6,2022-8-18T04:05:53Z
2022-08-18T02:07:07Z,42.805,6.029,13.3008,4.60074,2470.6,2022-8-18T04:08:56Z
2022-08-18T02:10:10Z,42.805,6.029,13.3008,4.60055,2470.637,2022-8-18T04:11:59Z
2022-08-18T02:13:13Z,42.805,6.029,13.3010,4.60066,2470.6,2022-8-18T04:15:02Z
2022-08-18T02:16:16Z,42.805,6.029,13.3011,4.60067,2470.6,2022-8-18T04:18:06Z
2022-08-18T02:19:19Z,42.805,6.029,13.3009,4.60068,2470.637,2022-8-18T04:21:09Z
2022-08-18T02:22:22Z,42.805,6.029,13.3011,4.60057,2470.624,2022-8-18T04:24:12Z
2022-08-18T02:25:25Z,42.805,6.029,13.3011,4.60055,2470.6,2022-8-18T04:27:15Z
2022-08-18T02:28:28Z,42.805,6.029,13.3010,4.60059,2470.637,2022-8-18T04:30:18Z
2022-08-18T02:31:32Z,42.805,6.029,13.3008,4.60060,2470.6,2022-8-18T04:33:21Z
2022-08-18T02:34:35Z,42.805,6.029,13.3009,4.60058,2470.614,2022-8-18T04:36:24Z
2022-08-18T02:37:38Z,42.805,6.029,13.3011,4.60061,2470.6,2022-8-18T04:39:27Z
2022-08-18T02:40:41Z,42.805,6.029,13.3008,4.60063,2470.624,2022-8-18T04:42:31Z
2022-08-18T02:43:44Z,42.805,6.029,13.3008,4.60066,2470.637,2022-8-18T04:45:34Z
2022-08-18T02:46:47Z,42.805,6.029,13.3009,4.60059,2470.624,2022-8-18T04:48:37Z
2022-08-18T02:49:50Z,42.805,6.029,13.3009,4.60062,2470.614,2022-8-18T04:51:40Z
2022-08-18T02:52:53Z,42.805,6.029,13.3011,4.60062,2470.553,2022-8-18T04:54:43Z
2022-08-18T02:55:57Z,42.805,6.029,13.3009,4.60061,2470.637,2022-8-18T04:57:46Z
2022-08-18T02:59:00Z,42.805,6.029,13.3006,4.60077,2470.577,2022-8-18T05:00:49Z
2022-08-18T03:02:03Z,42.805,6.029,13.3008,4.60070,2470.553,2022-8-18T05:03:52Z
2022-08-18T03:05:06Z,42.805,6.029,13.3009,4.60071,2470.6,2022-8-18T05:06:56Z
2022-08-18T03:08:09Z,42.805,6.029,13.3011,4.60080,2470.614,2022-8-18T05:09:59Z
2022-08-18T03:11:12Z,42.805,6.029,13.3011,4.60102,2470.591,2022-8-18T05:13:02Z
2022-08-18T03:14:15Z,42.805,6.029,13.3009,4.60074,2470.591,2022-8-18T05:16:05Z
2022-08-18T03:17:18Z,42.805,6.029,13.3056,4.60089,2470.577,2022-8-18T05:19:08Z
2022-08-18T03:20:22Z,42.805,6.029,13.3033,4.60082,2470.591,2022-8-18T05:22:11Z
2022-08-18T03:23:25Z,42.805,6.029,13.3046,4.60097,2470.591,2022-8-18T05:25:14Z
2022-08-18T03:26:28Z,42.805,6.029,13.3037,4.60092,2470.577,2022-8-18T05:28:17Z
2022-08-18T03:29:31Z,42.805,6.029,13.3012,4.60121,2470.591,2022-8-18T05:31:21Z
2022-08-18T03:32:34Z,42.805,6.029,13.3011,4.60138,2470.553,2022-8-18T05:34:24Z
2022-08-18T03:35:37Z,42.805,6.029,13.3014,4.60081,2470.553,2022-8-18T05:37:27Z
2022-08-18T03:38:40Z,42.805,6.029,13.3011,4.60086,2470.567,2022-8-18T05:40:30Z
2022-08-18T03:41:43Z,42.805,6.029,13.3018,4.60086,2470.577,2022-8-18T05:43:33Z
2022-08-18T03:44:47Z,42.805,6.029,13.3066,4.60092,2470.553,2022-8-18T05:46:36Z
2022-08-18T03:47:50Z,42.805,6.029,13.3018,4.60099,2470.577,2022-8-18T05:49:39Z
2022-08-18T03:50:53Z,42.805,6.029,13.3013,4.60088,2470.567,2022-8-18T05:52:42Z
2022-08-18T03:53:56Z,42.805,6.029,13.3014,4.60093,2470.591,2022-8-18T05:55:45Z
2022-08-18T03:56:59Z,42.805,6.029,13.3021,4.60106,2470.577,2022-8-18T05:58:49Z
2022-08-18T04:00:02Z,42.805,6.029,13.3024,4.60132,2470.577,2022-8-18T06:01:52Z
2022-08-18T04:03:05Z,42.805,6.029,13.3098,4.60103,2470.567,2022-8-18T06:04:55Z
2022-08-18T04:06:08Z,42.805,6.029,13.3019,4.60104,2470.553,2022-8-18T06:07:58Z
2022-08-18T04:09:12Z,42.805,6.029,13.3009,4.60115,2470.591,2022-8-18T06:11:01Z
2022-08-18T04:12:15Z,42.805,6.029,13.3010,4.60096,2470.553,2022-8-18T06:14:04Z
2022-08-18T04:15:18Z,42.805,6.029,13.3011,4.60068,2470.553,2022-8-18T06:17:07Z
2022-08-18T04:18:21Z,42.805,6.029,13.3011,4.60065,2470.567,2022-8-18T06:20:10Z
2022-08-18T04:21:24Z,42.805,6.029,13.3010,4.60067,2470.553,2022-8-18T06:23:14Z
2022-08-18T04:24:27Z,42.805,6.029,13.3009,4.60062,2470.553,2022-8-18T06:26:17Z
2022-08-18T04:27:30Z,42.805,6.029,13.3014,4.60064,2470.567,2022-8-18T06:29:20Z
2022-08-18T04:30:33Z,42.805,6.029,13.3010,4.60059,2470.567,2022-8-18T06:32:23Z
2022-08-18T04:33:37Z,42.805,6.029,13.3011,4.60057,2470.553,2022-8-18T06:35:26Z
2022-08-18T04:36:40Z,42.805,6.029,13.3009,4.60056,2470.553,2022-8-18T06:38:29Z
2022-08-18T04:39:43Z,42.805,6.029,13.3009,4.60052,2470.544,2022-8-18T06:41:32Z
2022-08-18T04:42:46Z,42.805,6.029,13.3010,4.60054,2470.567,2022-8-18T06:44:35Z
2022-08-18T04:45:49Z,42.805,6.029,13.3009,4.60055,2470.567,2022-8-18T06:47:39Z
2022-08-18T04:48:52Z,42.805,6.029,13.3009,4.60057,2470.53,2022-8-18T06:50:42Z
2022-08-18T04:51:55Z,42.805,6.029,13.3011,4.60057,2470.553,2022-8-18T06:53:45Z
2022-08-18T04:54:58Z,42.805,6.029,13.3009,4.60067,2470.53,2022-8-18T06:56:48Z
2022-08-18T04:58:02Z,42.805,6.029,13.3012,4.60057,2470.591,2022-8-18T06:59:51Z
2022-08-18T05:01:05Z,42.805,6.029,13.3008,4.60057,2470.553,2022-8-18T07:02:54Z
2022-08-18T05:04:08Z,42.805,6.029,13.3009,4.60061,2470.567,2022-8-18T07:05:57Z
2022-08-18T05:07:11Z,42.805,6.029,13.3009,4.60066,2470.553,2022-8-18T07:09:00Z
2022-08-18T05:10:14Z,42.805,6.029,13.3008,4.60069,2470.544,2022-8-18T07:12:04Z
2022-08-18T05:13:17Z,42.805,6.029,13.3011,4.60067,2470.544,2022-8-18T07:15:07Z
2022-08-18T05:16:20Z,42.805,6.029,13.3009,4.60067,2470.553,2022-8-18T07:18:10Z
2022-08-18T05:19:23Z,42.805,6.029,13.3011,4.60077,2470.544,2022-8-18T07:21:13Z
2022-08-18T05:22:26Z,42.805,6.029,13.3009,4.60069,2470.553,2022-8-18T07:24:16Z
2022-08-18T05:25:30Z,42.805,6.029,13.3010,4.60087,2470.577,2022-8-18T07:27:19Z
2022-08-18T05:28:33Z,42.805,6.029,13.3009,4.60107,2470.553,2022-8-18T07:30:22Z
2022-08-18T05:31:36Z,42.805,6.029,13.3011,4.60092,2470.544,2022-8-18T07:33:25Z
2022-08-18T05:34:39Z,42.805,6.029,13.3006,4.60119,2470.567,2022-8-18T07:36:29Z
2022-08-18T05:37:42Z,42.805,6.029,13.3008,4.60104,2470.507,2022-8-18T07:39:32Z
2022-08-18T05:40:45Z,42.805,6.029,13.3011,4.60087,2470.53,2022-8-18T07:42:35Z
2022-08-18T05:43:48Z,42.805,6.029,13.3031,4.60119,2470.53,2022-8-18T07:45:38Z
2022-08-18T05:46:51Z,42.805,6.029,13.3028,4.60117,2470.53,2022-8-18T07:48:41Z
2022-08-18T05:49:55Z,42.805,6.029,13.3016,4.60103,2470.553,2022-8-18T07:51:44Z
2022-08-18T05:52:58Z,42.805,6.029,13.3098,4.60114,2470.553,2022-8-18T07:54:47Z
2022-08-18T05:56:01Z,42.805,6.029,13.3088,4.60098,2470.544,2022-8-18T07:57:50Z
2022-08-18T05:59:04Z,42.805,6.029,13.3067,4.60114,2470.544,2022-8-18T08:00:53Z
2022-08-18T06:02:07Z,42.805,6.029,13.3072,4.60095,2470.53,2022-8-18T08:03:57Z
2022-08-18T06:05:10Z,42.805,6.029,13.3067,4.60108,2470.507,2022-8-18T08:07:00Z
2022-08-18T06:08:13Z,42.805,6.029,13.3073,4.60101,2470.544,2022-8-18T08:10:03Z
2022-08-18T06:11:16Z,42.805,6.029,13.3072,4.60104,2470.544,2022-8-18T08:13:06Z
2022-08-18T06:14:20Z,42.805,6.029,13.3078,4.60097,2470.544,2022-8-18T08:16:09Z
2022-08-18T06:17:23Z,42.805,6.029,13.3088,4.60084,2470.52,2022-8-18T08:19:12Z
2022-08-18T06:20:26Z,42.805,6.029,13.3061,4.60094,2470.507,2022-8-18T08:22:15Z
2022-08-18T06:23:29Z,42.805,6.029,13.3056,4.60092,2470.53,2022-8-18T08:25:18Z
2022-08-18T06:26:32Z,42.805,6.029,13.3058,4.60119,2470.567,2022-8-18T08:28:22Z
2022-08-18T06:29:35Z,42.805,6.029,13.3051,4.60099,2470.507,2022-8-18T08:31:25Z
2022-08-18T06:32:38Z,42.805,6.029,13.3073,4.60089,2470.53,2022-8-18T08:34:28Z
2022-08-18T06:35:41Z,42.805,6.029,13.3066,4.60082,2470.53,2022-8-18T08:37:31Z
2022-08-18T06:38:44Z,42.805,6.029,13.3066,4.60088,2470.53,2022-8-18T08:40:34Z
2022-08-18T06:41:48Z,42.805,6.029,13.3061,4.60087,2470.553,2022-8-18T08:43:37Z
2022-08-18T06:44:51Z,42.805,6.029,13.3089,4.60080,2470.53,2022-8-18T08:46:40Z
2022-08-18T06:47:54Z,42.805,6.029,13.3066,4.60079,2470.567,2022-8-18T08:49:43Z
2022-08-18T06:50:57Z,42.805,6.029,13.3061,4.60088,2470.544,2022-8-18T08:52:47Z
2022-08-18T06:54:00Z,42.805,6.029,13.3040,4.60092,2470.553,2022-8-18T08:55:50Z
2022-08-18T06:57:03Z,42.805,6.029,13.3071,4.60121,2470.52,2022-8-18T08:58:53Z
2022-08-18T07:00:06Z,42.805,6.029,13.3082,4.60100,2470.497,2022-8-18T09:01:56Z
2022-08-18T07:03:09Z,42.805,6.029,13.3093,4.60097,2470.52,2022-8-18T09:04:59Z
2022-08-18T07:06:13Z,42.805,6.029,13.3067,4.60116,2470.507,2022-8-18T09:08:02Z
2022-08-18T07:09:16Z,42.805,6.029,13.3060,4.60102,2470.52,2022-8-18T09:11:05Z
2022-08-18T07:12:19Z,42.805,6.029,13.3066,4.60096,2470.497,2022-8-18T09:14:08Z
2022-08-18T07:15:22Z,42.805,6.029,13.3061,4.60111,2470.52,2022-8-18T09:17:11Z
2022-08-18T07:18:25Z,42.805,6.029,13.3059,4.60091,2470.507,2022-8-18T09:20:15Z
2022-08-18T07:21:28Z,42.805,6.029,13.3043,4.60118,2470.544,2022-8-18T09:23:18Z
2022-08-18T07:24:31Z,42.805,6.029,13.3072,4.60094,2470.544,2022-8-18T09:26:21Z
2022-08-18T07:27:34Z,42.805,6.029,13.3017,4.60097,2470.53,2022-8-18T09:29:24Z
2022-08-18T07:30:38Z,42.805,6.029,13.3063,4.60105,2470.544,2022-8-18T09:32:27Z
2022-08-18T07:33:41Z,42.805,6.029,13.3082,4.60112,2470.567,2022-8-18T09:35:30Z
2022-08-18T07:36:44Z,42.805,6.029,13.3067,4.60102,2470.53,2022-8-18T09:38:33Z
2022-08-18T07:39:47Z,42.805,6.029,13.3078,4.60120,2470.577,2022-8-18T09:41:36Z
2022-08-18T07:42:50Z,42.805,6.029,13.3118,4.60126,2470.567,2022-8-18T09:44:40Z
2022-08-18T07:45:53Z,42.805,6.029,13.3050,4.60097,2470.553,2022-8-18T09:47:43Z
2022-08-18T07:48:56Z,42.805,6.029,13.3069,4.60119,2470.591,2022-8-18T09:50:46Z
2022-08-18T07:51:59Z,42.805,6.029,13.3031,4.60104,2470.544,2022-8-18T09:53:49Z
2022-08-18T07:55:02Z,42.805,6.029,13.3069,4.60079,2470.553,2022-8-18T09:56:52Z
2022-08-18T07:58:06Z,42.805,6.029,13.3088,4.60101,2470.591,2022-8-18T09:59:55Z
2022-08-18T08:01:09Z,42.805,6.029,13.3073,4.60090,2470.544,2022-8-18T10:02:58Z
2022-08-18T08:04:12Z,42.805,6.029,13.3062,4.60110,2470.577,2022-8-18T10:06:01Z
2022-08-18T08:07:15Z,42.805,6.029,13.3063,4.60088,2470.53,2022-8-18T10:09:04Z
2022-08-18T08:10:18Z,42.805,6.029,13.3060,4.60083,2470.553,2022-8-18T10:12:08Z
2022-08-18T08:13:21Z,42.805,6.029,13.3058,4.60095,2470.53,2022-8-18T10:15:11Z
2022-08-18T08:16:24Z,42.805,6.029,13.3053,4.60114,2470.6,2022-8-18T10:18:14Z
2022-08-18T08:19:27Z,42.805,6.029,13.3078,4.60116,2470.553,2022-8-18T10:21:17Z
2022-08-18T08:22:31Z,42.805,6.029,13.3055,4.60104,2470.544,2022-8-18T10:24:20Z
2022-08-18T08:25:34Z,42.805,6.029,13.3098,4.60081,2470.553,2022-8-18T10:27:23Z
2022-08-18T08:28:37Z,42.805,6.029,13.3062,4.60084,2470.591,2022-8-18T10:30:26Z
2022-08-18T08:31:40Z,42.805,6.029,13.3070,4.60076,2470.6,2022-8-18T10:33:30Z
2022-08-18T08:34:43Z,42.805,6.029,13.3049,4.60099,2470.567,2022-8-18T10:36:33Z
2022-08-18T08:37:46Z,42.805,6.029,13.3063,4.60086,2470.614,2022-8-18T10:39:36Z
2022-08-18T08:40:49Z,42.805,6.029,13.3060,4.60085,2470.577,2022-8-18T10:42:39Z
2022-08-18T08:43:52Z,42.805,6.029,13.3073,4.60085,2470.553,2022-8-18T10:45:42Z
2022-08-18T08:46:56Z,42.805,6.029,13.3053,4.60076,2470.553,2022-8-18T10:48:45Z
2022-08-18T08:49:59Z,42.805,6.029,13.3050,4.60091,2470.577,2022-8-18T10:51:48Z
2022-08-18T08:53:02Z,42.805,6.029,13.3070,4.60103,2470.577,2022-8-18T10:54:51Z
2022-08-18T08:56:05Z,42.805,6.029,13.3058,4.60102,2470.614,2022-8-18T10:57:55Z
2022-08-18T08:59:08Z,42.805,6.029,13.3071,4.60091,2470.591,2022-8-18T11:00:58Z
2022-08-18T09:02:11Z,42.805,6.029,13.3059,4.60077,2470.577,2022-8-18T11:04:01Z
2022-08-18T09:05:14Z,42.805,6.029,13.3029,4.60099,2470.591,2022-8-18T11:07:04Z
2022-08-18T09:08:17Z,42.805,6.029,13.3082,4.60102,2470.553,2022-8-18T11:10:07Z
2022-08-18T09:11:21Z,42.805,6.029,13.3069,4.60123,2470.6,2022-8-18T11:13:10Z
2022-08-18T09:14:24Z,42.805,6.029,13.3056,4.60092,2470.577,2022-8-18T11:16:13Z
2022-08-18T09:17:27Z,42.805,6.029,13.3062,4.60103,2470.614,2022-8-18T11:19:16Z
2022-08-18T09:20:30Z,42.805,6.029,13.3058,4.60091,2470.624,2022-8-18T11:22:20Z
2022-08-18T09:23:33Z,42.805,6.029,13.3048,4.60088,2470.567,2022-8-18T11:25:23Z
2022-08-18T09:26:36Z,42.805,6.029,13.3022,4.60073,2470.614,2022-8-18T11:28:26Z
2022-08-18T09:29:39Z,42.805,6.029,13.3067,4.60105,2470.591,2022-8-18T11:31:29Z
2022-08-18T09:32:42Z,42.805,6.029,13.3067,4.60094,2470.6,2022-8-18T11:34:32Z
2022-08-18T09:35:46Z,42.805,6.029,13.3056,4.60076,2470.614,2022-8-18T11:37:35Z
2022-08-18T09:38:49Z,42.805,6.029,13.3061,4.60085,2470.614,2022-8-18T11:40:38Z
2022-08-18T09:41:52Z,42.805,6.029,13.3051,4.60095,2470.6,2022-8-18T11:43:41Z
2022-08-18T09:44:55Z,42.805,6.029,13.3058,4.60080,2470.637,2022-8-18T11:46:45Z
2022-08-18T09:47:58Z,42.805,6.029,13.3056,4.60099,2470.614,2022-8-18T11:49:48Z
2022-08-18T09:51:01Z,42.805,6.029,13.3058,4.60087,2470.6,2022-8-18T11:52:51Z
2022-08-18T09:54:04Z,42.805,6.029,13.3057,4.60085,2470.614,2022-8-18T11:55:54Z
2022-08-18T09:57:07Z,42.805,6.029,13.3065,4.60079,2470.624,2022-8-18T11:58:57Z
2022-08-18T10:00:11Z,42.805,6.029,13.3058,4.60082,2470.591,2022-8-18T12:02:00Z
2022-08-18T10:03:14Z,42.805,6.029,13.3060,4.60092,2470.624,2022-8-18T12:05:03Z
2022-08-18T10:06:17Z,42.805,6.029,13.3080,4.60087,2470.6,2022-8-18T12:08:06Z
2022-08-18T10:09:20Z,42.805,6.029,13.3059,4.60085,2470.614,2022-8-18T12:11:10Z
2022-08-18T10:12:23Z,42.805,6.029,13.3053,4.60075,2470.614,2022-8-18T12:14:13Z
2022-08-18T10:15:26Z,42.805,6.029,13.3044,4.60076,2470.637,2022-8-18T12:17:16Z
2022-08-18T10:18:29Z,42.805,6.029,13.3055,4.60079,2470.614,2022-8-18T12:20:19Z
2022-08-18T10:21:33Z,42.805,6.029,13.3049,4.60104,2470.637,2022-8-18T12:23:22Z
2022-08-18T10:24:36Z,42.805,6.029,13.3058,4.60080,2470.661,2022-8-18T12:26:25Z
2022-08-18T10:27:39Z,42.805,6.029,13.3043,4.60078,2470.637,2022-8-18T12:29:28Z
2022-08-18T10:30:42Z,42.805,6.029,13.3058,4.60081,2470.637,2022-8-18T12:32:31Z
2022-08-18T10:33:45Z,42.805,6.029,13.3045,4.60086,2470.6,2022-8-18T12:35:35Z
2022-08-18T10:36:48Z,42.805,6.029,13.3061,4.60093,2470.586,2022-8-18T12:38:38Z
2022-08-18T10:39:51Z,42.805,6.029,13.3063,4.60080,2470.614,2022-8-18T12:41:41Z
2022-08-18T10:42:54Z,42.805,6.029,13.3055,4.60079,2470.624,2022-8-18T12:44:44Z
2022-08-18T10:45:58Z,42.805,6.029,13.3056,4.60084,2470.637,2022-8-18T12:47:47Z
2022-08-18T10:49:01Z,42.805,6.029,13.3055,4.60075,2470.614,2022-8-18T12:50:50Z
2022-08-18T10:52:04Z,42.805,6.029,13.3052,4.60088,2470.661,2022-8-18T12:53:53Z
2022-08-18T10:55:07Z,42.805,6.029,13.3046,4.60082,2470.637,2022-8-18T12:56:56Z
2022-08-18T10:58:10Z,42.805,6.029,13.3048,4.60081,2470.624,2022-8-18T13:00:00Z
2022-08-18T11:01:13Z,42.805,6.029,13.3050,4.60081,2470.624,2022-8-18T13:03:03Z
2022-08-18T11:04:16Z,42.805,6.029,13.3049,4.60081,2470.661,2022-8-18T13:06:06Z
2022-08-18T11:07:19Z,42.805,6.029,13.3055,4.60084,2470.684,2022-8-18T13:09:09Z
2022-08-18T11:10:23Z,42.805,6.029,13.3058,4.60078,2470.624,2022-8-18T13:12:12Z
2022-08-18T11:13:26Z,42.805,6.029,13.3054,4.60082,2470.646,2022-8-18T13:15:15Z
2022-08-18T11:16:29Z,42.805,6.029,13.3051,4.60087,2470.624,2022-8-18T13:18:18Z
2022-08-18T11:19:32Z,42.805,6.029,13.3041,4.60088,2470.646,2022-8-18T13:21:21Z
2022-08-18T11:22:35Z,42.805,6.029,13.3048,4.60084,2470.661,2022-8-18T13:24:25Z
2022-08-18T11:25:38Z,42.805,6.029,13.3046,4.60081,2470.61,2022-8-18T13:27:28Z
2022-08-18T11:28:41Z,42.805,6.029,13.3048,4.60084,2470.661,2022-8-18T13:30:31Z
2022-08-18T11:31:44Z,42.805,6.029,13.3053,4.60088,2470.624,2022-8-18T13:33:34Z
2022-08-18T11:34:48Z,42.805,6.029,13.3050,4.60083,2470.637,2022-8-18T13:36:37Z
2022-08-18T11:37:51Z,42.805,6.029,13.3049,4.60081,2470.646,2022-8-18T13:39:40Z
2022-08-18T11:40:54Z,42.805,6.029,13.3043,4.60087,2470.646,2022-8-18T13:42:43Z
2022-08-18T11:43:57Z,42.805,6.029,13.3051,4.60079,2470.614,2022-8-18T13:45:46Z
2022-08-18T11:47:00Z,42.805,6.029,13.3069,4.60080,2470.637,2022-8-18T13:48:50Z
2022-08-18T11:50:03Z,42.805,6.029,13.3048,4.60072,2470.637,2022-8-18T13:51:53Z
2022-08-18T11:53:06Z,42.805,6.029,13.3046,4.60081,2470.646,2022-8-18T13:54:56Z
2022-08-18T11:56:09Z,42.805,6.029,13.3054,4.60081,2470.624,2022-8-18T13:57:59Z
2022-08-18T11:59:13Z,42.805,6.029,13.3055,4.60081,2470.6,2022-8-18T14:01:02Z
2022-08-18T12:02:16Z,42.805,6.029,13.3048,4.60080,2470.624,2022-8-18T14:04:05Z
2022-08-18T12:05:19Z,42.805,6.029,13.3055,4.60078,2470.637,2022-8-18T14:07:08Z
2022-08-18T12:08:22Z,42.805,6.029,13.3060,4.60084,2470.6,2022-8-18T14:10:11Z
2022-08-18T12:11:25Z,42.805,6.029,13.3053,4.60074,2470.624,2022-8-18T14:13:15Z
2022-08-18T12:14:28Z,42.805,6.029,13.3057,4.60085,2470.614,2022-8-18T14:16:18Z
2022-08-18T12:17:31Z,42.805,6.029,13.3051,4.60084,2470.624,2022-8-18T14:19:21Z
2022-08-18T12:20:34Z,42.805,6.029,13.3055,4.60072,2470.661,2022-8-18T14:22:24Z
2022-08-18T12:23:38Z,42.805,6.029,13.3047,4.60084,2470.591,2022-8-18T14:25:27Z
2022-08-18T12:26:41Z,42.805,6.029,13.3067,4.60075,2470.637,2022-8-18T14:28:30Z
2022-08-18T12:29:44Z,42.805,6.029,13.3064,4.60072,2470.624,2022-8-18T14:31:33Z
2022-08-18T12:32:47Z,42.805,6.029,13.3051,4.60084,2470.6,2022-8-18T14:34:36Z
2022-08-18T12:35:50Z,42.805,6.029,13.3054,4.60087,2470.624,2022-8-18T14:37:40Z
2022-08-18T12:38:53Z,42.805,6.029,13.3046,4.60086,2470.6,2022-8-18T14:40:43Z
2022-08-18T12:41:56Z,42.805,6.029,13.3046,4.60074,2470.637,2022-8-18T14:43:46Z
2022-08-18T12:44:59Z,42.805,6.029,13.3050,4.60077,2470.6,2022-8-18T14:46:49Z
2022-08-18T12:48:03Z,42.805,6.029,13.3042,4.60090,2470.661,2022-8-18T14:49:52Z
2022-08-18T12:51:06Z,42.805,6.029,13.3046,4.60076,2470.637,2022-8-18T14:52:55Z
2022-08-18T12:54:09Z,42.805,6.029,13.3042,4.60085,2470.624,2022-8-18T14:55:58Z
2022-08-18T12:57:12Z,42.805,6.029,13.3056,4.60070,2470.624,2022-8-18T14:59:02Z
2022-08-18T13:00:15Z,42.805,6.029,13.3061,4.60080,2470.624,2022-8-18T15:02:05Z
2022-08-18T13:03:18Z,42.805,6.029,13.3042,4.60075,2470.624,2022-8-18T15:05:08Z
2022-08-18T13:06:21Z,42.805,6.029,13.3076,4.60081,2470.61,2022-8-18T15:08:11Z
2022-08-18T13:09:24Z,42.805,6.029,13.3050,4.60088,2470.6,2022-8-18T15:11:14Z
2022-08-18T13:12:28Z,42.805,6.029,13.3058,4.60077,2470.614,2022-8-18T15:14:17Z
2022-08-18T13:15:31Z,42.805,6.029,13.3050,4.60082,2470.614,2022-8-18T15:17:20Z
2022-08-18T13:18:34Z,42.805,6.029,13.3045,4.60078,2470.637,2022-8-18T15:20:23Z
2022-08-18T13:21:37Z,42.805,6.029,13.3058,4.60084,2470.614,2022-8-18T15:23:26Z
2022-08-18T13:24:40Z,42.805,6.029,13.3046,4.60079,2470.637,2022-8-18T15:26:30Z
2022-08-18T13:27:43Z,42.805,6.029,13.3048,4.60080,2470.624,2022-8-18T15:29:33Z
2022-08-18T13:30:46Z,42.805,6.029,13.3047,4.60086,2470.614,2022-8-18T15:32:36Z
2022-08-18T13:33:49Z,42.805,6.029,13.3057,4.60081,2470.614,2022-8-18T15:35:39Z
2022-08-18T13:36:53Z,42.805,6.029,13.3049,4.60081,2470.614,2022-8-18T15:38:42Z
2022-08-18T13:39:56Z,42.805,6.029,13.3048,4.60079,2470.614,2022-8-18T15:41:45Z
2022-08-18T13:42:59Z,42.805,6.029,13.3056,4.60077,2470.6,2022-8-18T15:44:48Z
2022-08-18T13:46:02Z,42.805,6.029,13.3054,4.60076,2470.624,2022-8-18T15:47:52Z
2022-08-18T13:49:05Z,42.805,6.029,13.3039,4.60079,2470.6,2022-8-18T15:50:55Z
2022-08-18T13:52:08Z,42.805,6.029,13.3041,4.60082,2470.614,2022-8-18T15:53:58Z
2022-08-18T13:55:11Z,42.805,6.029,13.3068,4.60074,2470.614,2022-8-18T15:57:01Z
2022-08-18T13:58:14Z,42.805,6.029,13.3066,4.60074,2470.614,2022-8-18T16:00:04Z
2022-08-18T14:01:18Z,42.805,6.029,13.3047,4.60067,2470.614,2022-8-18T16:03:07Z
2022-08-18T14:04:21Z,42.805,6.029,13.3037,4.60077,2470.614,2022-8-18T16:06:10Z
2022-08-18T14:07:24Z,42.805,6.029,13.3044,4.60087,2470.591,2022-8-18T16:09:13Z
2022-08-18T14:10:27Z,42.805,6.029,13.3051,4.60079,2470.577,2022-8-18T16:12:16Z
2022-08-18T14:13:30Z,42.805,6.029,13.3044,4.60066,2470.591,2022-8-18T16:15:20Z
2022-08-18T14:16:33Z,42.805,6.029,13.3047,4.60082,2470.614,2022-8-18T16:18:23Z
2022-08-18T14:19:36Z,42.805,6.029,13.3055,4.60092,2470.614,2022-8-18T16:21:26Z
2022-08-18T14:22:39Z,42.805,6.029,13.3063,4.60078,2470.614,2022-8-18T16:24:29Z
2022-08-18T14:25:43Z,42.805,6.029,13.3057,4.60076,2470.591,2022-8-18T16:27:32Z
2022-08-18T14:28:46Z,42.805,6.029,13.3051,4.60077,2470.591,2022-8-18T16:30:35Z
2022-08-18T14:31:49Z,42.805,6.029,13.3051,4.60074,2470.614,2022-8-18T16:33:38Z
2022-08-18T14:34:52Z,42.805,6.029,13.3043,4.60079,2470.6,2022-8-18T16:36:42Z
2022-08-18T14:37:55Z,42.805,6.029,13.3048,4.60079,2470.614,2022-8-18T16:39:45Z
2022-08-18T14:40:58Z,42.805,6.029,13.3051,4.60089,2470.6,2022-8-18T16:42:48Z
2022-08-18T14:44:01Z,42.805,6.029,13.3056,4.60079,2470.6,2022-8-18T16:45:51Z
2022-08-18T14:47:05Z,42.805,6.029,13.3051,4.60079,2470.614,2022-8-18T16:48:54Z
2022-08-18T14:50:08Z,42.805,6.029,13.3047,4.60087,2470.591,2022-8-18T16:51:57Z
2022-08-18T14:53:11Z,42.805,6.029,13.3039,4.60077,2470.614,2022-8-18T16:55:00Z
2022-08-18T14:56:14Z,42.805,6.029,13.3048,4.60082,2470.577,2022-8-18T16:58:03Z
2022-08-18T14:59:17Z,42.805,6.029,13.3051,4.60081,2470.614,2022-8-18T17:01:07Z
2022-08-18T15:02:20Z,42.805,6.029,13.3048,4.60082,2470.577,2022-8-18T17:04:10Z
2022-08-18T15:05:23Z,42.805,6.029,13.3048,4.60077,2470.577,2022-8-18T17:07:13Z
2022-08-18T15:08:26Z,42.805,6.029,13.3055,4.60079,2470.6,2022-8-18T17:10:16Z
2022-08-18T15:11:30Z,42.805,6.029,13.3050,4.60075,2470.567,2022-8-18T17:13:19Z